GW1938 Weather Reports


Display with metric or nautical units.
time (UTC)temp
F
wind
direction
speed
MPH
gust
MPH
rain 1hr
in
rain 24hr
in
rain mn
in
humidity
%
barometer
mb
20260509053357 67 185 9.0 16.0 0.00 0.00 0.00 58 1021.0
20260509052352 68 196 7.0 12.0 0.00 0.00 0.00 58 1021.1
20260509051346 67 191 8.0 15.0 0.00 0.00 0.00 56 1021.0
20260509050845 67 205 11.0 16.0 0.00 0.00 0.00 60 1021.0
20260509045839 68 199 8.0 13.0 0.00 0.00 0.00 58 1021.0
20260509045338 67 205 11.0 17.0 0.00 0.00 0.00 60 1020.9
20260509043828 67 193 11.0 18.0 0.00 0.00 0.00 59 1020.9
20260509043326 68 192 11.0 16.0 0.00 0.00 0.00 56 1020.9
20260509042824 67 191 10.0 16.0 0.00 0.00 0.00 60 1020.9
20260509042322 67 193 11.0 17.0 0.00 0.00 0.00 60 1020.9
20260509041316 68 204 7.0 15.0 0.00 0.00 0.00 60 1020.9
20260509040224 68 199 10.0 15.0 0.00 0.00 0.00 58 1021.0
20260509035109 67 205 10.0 17.0 0.00 0.00 0.00 58 1021.0
20260509034104 67 204 12.0 17.0 0.00 0.00 0.00 57 1021.0
20260509033602 67 208 11.0 18.0 0.00 0.00 0.00 55 1021.0
20260509032054 67 203 11.0 20.0 0.00 0.00 0.00 55 1021.0
20260509031553 66 207 13.0 20.0 0.00 0.00 0.00 57 1021.2
20260509030548 67 200 13.0 21.0 0.00 0.00 0.00 55 1021.2
20260509025544 68 196 10.0 15.0 0.00 0.00 0.00 51 1021.3
20260509024539 68 211 11.0 17.0 0.00 0.00 0.00 49 1021.4
20260509024038 69 188 6.0 12.0 0.00 0.00 0.00 46 1021.4
20260509023537 69 219 6.0 13.0 0.00 0.00 0.00 47 1021.5
20260509023035 68 213 7.0 15.0 0.00 0.00 0.00 49 1021.5
20260509022534 67 222 9.0 18.0 0.00 0.00 0.00 48 1021.5
20260509022033 67 219 8.0 15.0 0.00 0.00 0.00 48 1021.6
20260509021026 67 219 8.0 15.0 0.00 0.00 0.00 47 1021.6
20260509020525 67 222 8.0 16.0 0.00 0.00 0.00 52 1021.6
20260509020022 67 219 9.0 15.0 0.00 0.00 0.00 49 1021.7
20260509015521 67 231 9.0 17.0 0.00 0.00 0.00 47 1021.8
20260509014013 67 230 6.0 12.0 0.00 0.00 0.00 51 1022.0
20260509013512 67 250 6.0 9.0 0.00 0.00 0.00 53 1022.0
20260509012506 66 242 7.0 13.0 0.00 0.00 0.00 53 1022.2
20260509012004 66 249 7.0 12.0 0.00 0.00 0.00 53 1022.2
20260509011502 66 243 5.0 11.0 0.00 0.00 0.00 55 1022.3
20260509010959 65 249 7.0 14.0 0.00 0.00 0.00 56 1022.3
20260509010457 66 248 8.0 12.0 0.00 0.00 0.00 53 1022.4
20260509005956 65 250 8.0 14.0 0.00 0.00 0.00 54 1022.4
20260509005453 64 253 8.0 13.0 0.00 0.00 0.00 59 1022.5
20260509004952 64 249 9.0 16.0 0.00 0.00 0.00 56 1022.6
20260509004449 63 254 8.0 14.0 0.00 0.00 0.00 59 1022.6
20260509003948 62 274 7.0 12.0 0.00 0.00 0.00 62 1022.7
20260509003444 62 288 5.0 11.0 0.00 0.00 0.00 63 1022.7
20260509002943 62 274 7.0 14.0 0.00 0.00 0.00 62 1022.7
20260509002441 62 266 9.0 15.0 0.00 0.00 0.00 63 1022.7
20260509001437 62 249 9.0 15.0 0.00 0.00 0.00 59 1022.7
20260509000935 62 258 10.0 17.0 0.00 0.00 0.00 59 1022.6
20260509000434 61 257 11.0 17.0 0.00 0.00 0.00 61 1022.7
20260508235933 61 259 10.0 17.0 0.00 0.00 0.00 62 1022.7
20260508235432 61 258 9.0 17.0 0.00 0.00 0.00 63 1022.7
20260508234931 61 262 10.0 17.0 0.00 0.00 0.00 65 1022.7
20260508233925 60 262 9.0 16.0 0.00 0.00 0.00 66 1022.7
20260508233424 60 272 8.0 15.0 0.00 0.00 0.00 67 1022.7
20260508232922 59 270 9.0 15.0 0.00 0.00 0.00 69 1022.6
20260508232420 59 264 11.0 18.0 0.00 0.00 0.00 67 1022.6
20260508231416 59 261 10.0 18.0 0.00 0.00 0.00 67 1022.7
20260508230913 58 256 11.0 18.0 0.00 0.00 0.00 67 1022.6
20260508230412 58 262 11.0 18.0 0.00 0.00 0.00 67 1022.6
20260508225911 58 262 12.0 20.0 0.00 0.00 0.00 67 1022.5
20260508225409 57 261 13.0 20.0 0.00 0.00 0.00 68 1022.6
20260508224907 57 263 11.0 18.0 0.00 0.00 0.00 70 1022.5
20260508223903 56 263 12.0 19.0 0.00 0.00 0.00 69 1022.5
20260508223401 56 262 11.0 18.0 0.00 0.00 0.00 69 1022.5
20260508221851 56 275 9.0 16.0 0.00 0.00 0.00 74 1022.3
20260508221348 56 275 9.0 16.0 0.00 0.00 0.00 73 1022.2
20260508220343 56 267 9.0 16.0 0.00 0.00 0.00 73 1022.2
20260508215842 56 268 10.0 17.0 0.00 0.00 0.00 73 1022.2
20260508215339 56 265 10.0 19.0 0.00 0.00 0.00 73 1022.2
20260508214837 55 261 11.0 19.0 0.00 0.00 0.00 73 1022.1
20260508214336 55 257 13.0 20.0 0.00 0.00 0.00 71 1022.0
20260508213835 55 258 12.0 20.0 0.00 0.00 0.00 72 1021.9
20260508213332 55 262 12.0 18.0 0.00 0.00 0.00 73 1021.8
20260508212327 55 259 11.0 17.0 0.00 0.00 0.00 75 1021.6
20260508211824 55 254 10.0 18.0 0.00 0.00 0.00 77 1021.5
20260508211323 55 251 10.0 20.0 0.00 0.00 0.00 78 1021.3
20260508210318 55 250 12.0 19.0 0.00 0.00 0.00 78 1021.1
20260508205817 55 250 13.0 20.0 0.00 0.00 0.00 77 1021.2
20260508205315 54 252 12.0 19.0 0.00 0.00 0.00 78 1021.1
20260508204811 54 250 12.0 17.0 0.00 0.00 0.00 78 1021.1
20260508204310 54 247 10.0 15.0 0.00 0.00 0.00 78 1021.0
20260508203809 54 247 10.0 16.0 0.00 0.00 0.00 78 1020.9
20260508202804 54 244 10.0 16.0 0.00 0.00 0.00 79 1020.8
20260508202306 54 247 11.0 17.0 0.00 0.00 0.00 79 1020.7
20260508201802 54 245 10.0 15.0 0.00 0.00 0.00 78 1020.7
20260508201259 54 242 9.0 16.0 0.00 0.00 0.00 78 1020.7
20260508200758 54 242 10.0 16.0 0.00 0.00 0.00 77 1020.6
20260508200257 54 240 9.0 17.0 0.00 0.00 0.00 76 1020.6
20260508195756 54 240 11.0 17.0 0.00 0.00 0.00 76 1020.6
20260508195254 54 245 11.0 18.0 0.00 0.00 0.00 75 1020.5
20260508194250 55 242 10.0 17.0 0.00 0.00 0.00 75 1020.3
20260508193746 55 238 9.0 15.0 0.00 0.00 0.00 74 1020.3
20260508193243 55 237 12.0 18.0 0.00 0.00 0.00 72 1020.1
20260508192238 55 240 14.0 22.0 0.00 0.00 0.00 71 1020.0
20260508191233 55 234 13.0 20.0 0.00 0.00 0.00 68 1020.0
20260508190229 55 235 11.0 19.0 0.00 0.00 0.00 68 1019.8
20260508185726 55 237 11.0 18.0 0.00 0.00 0.00 70 1019.8
20260508185224 55 236 11.0 17.0 0.00 0.00 0.00 71 1019.9
20260508184723 55 241 10.0 18.0 0.00 0.00 0.00 68 1019.8
20260508184222 56 241 11.0 19.0 0.00 0.00 0.00 71 1019.8
20260508182210 55 243 10.0 17.0 0.00 0.00 0.00 71 1019.8
20260508181205 56 243 10.0 16.0 0.00 0.00 0.00 73 1019.8
20260508180703 56 246 10.0 17.0 0.00 0.00 0.00 72 1019.8
20260508180202 56 246 10.0 16.0 0.00 0.00 0.00 71 1019.7
20260508175700 56 246 11.0 18.0 0.00 0.00 0.00 71 1019.7
20260508173648 57 249 12.0 22.0 0.00 0.00 0.00 70 1019.6
20260508173147 57 250 10.0 18.0 0.00 0.00 0.00 71 1019.6
20260508172645 57 251 11.0 19.0 0.00 0.00 0.00 72 1019.5
20260508172142 57 249 9.0 18.0 0.00 0.00 0.00 73 1019.6
20260508171138 57 254 10.0 20.0 0.00 0.00 0.00 72 1019.6
20260508170636 57 245 9.0 18.0 0.00 0.00 0.00 73 1019.6
20260508170135 57 249 10.0 19.0 0.00 0.00 0.00 71 1019.6
20260508165130 57 245 10.0 17.0 0.00 0.00 0.00 71 1019.6
20260508163621 57 250 11.0 18.0 0.00 0.00 0.00 69 1019.5
20260508163120 57 251 11.0 17.0 0.00 0.00 0.00 70 1019.6
20260508162618 57 251 11.0 16.0 0.00 0.00 0.00 70 1019.5
20260508162117 57 247 10.0 19.0 0.00 0.00 0.00 69 1019.6
20260508161615 57 243 10.0 17.0 0.00 0.00 0.00 71 1019.6
20260508161112 57 248 10.0 14.0 0.00 0.00 0.00 70 1019.5
20260508160610 57 244 9.0 18.0 0.00 0.00 0.00 71 1019.5
20260508155605 57 242 8.0 14.0 0.00 0.00 0.00 71 1019.5
20260508155103 57 248 9.0 18.0 0.00 0.00 0.00 71 1019.5
20260508154601 57 249 9.0 17.0 0.00 0.00 0.00 71 1019.4
20260508153556 57 244 10.0 17.0 0.00 0.00 0.00 68 1019.5
20260508153055 57 244 9.0 16.0 0.00 0.00 0.00 68 1019.4
20260508152051 57 246 11.0 18.0 0.00 0.00 0.00 69 1019.4
20260508151549 57 246 10.0 17.0 0.00 0.00 0.00 68 1019.5
20260508151048 58 247 11.0 18.0 0.00 0.00 0.00 70 1019.6
20260508150545 58 246 11.0 19.0 0.00 0.00 0.00 68 1019.5
20260508150044 57 249 12.0 18.0 0.00 0.00 0.00 66 1019.6
20260508145542 57 251 10.0 17.0 0.00 0.00 0.00 67 1019.6
20260508145042 57 246 10.0 16.0 0.00 0.00 0.00 65 1019.6
20260508144539 58 244 11.0 20.0 0.00 0.00 0.00 66 1019.6
20260508144037 58 247 12.0 18.0 0.00 0.00 0.00 65 1019.5
20260508143030 58 248 13.0 22.0 0.00 0.00 0.00 64 1019.5
20260508142529 58 245 13.0 20.0 0.00 0.00 0.00 65 1019.5
20260508142027 58 246 12.0 19.0 0.00 0.00 0.00 64 1019.4
20260508141526 58 242 11.0 18.0 0.00 0.00 0.00 65 1019.4
20260508141025 58 246 12.0 19.0 0.00 0.00 0.00 64 1019.4
20260508135515 59 257 12.0 19.0 0.00 0.00 0.00 65 1019.3
20260508135013 58 256 10.0 21.0 0.00 0.00 0.00 64 1019.2
20260508134511 58 248 11.0 18.0 0.00 0.00 0.00 65 1019.4
20260508133507 58 248 11.0 18.0 0.00 0.00 0.00 64 1019.4
20260508133005 58 245 11.0 18.0 0.00 0.00 0.00 64 1019.3
20260508132504 58 246 10.0 16.0 0.00 0.00 0.00 65 1019.4
20260508132003 58 246 11.0 17.0 0.00 0.00 0.00 64 1019.4
20260508131502 58 246 11.0 19.0 0.00 0.00 0.00 63 1019.4
20260508131000 58 244 11.0 20.0 0.00 0.00 0.00 63 1019.3
20260508130458 58 247 9.0 17.0 0.00 0.00 0.00 65 1019.3
20260508125957 58 243 10.0 15.0 0.00 0.00 0.00 62 1019.3
20260508125455 58 245 12.0 17.0 0.00 0.00 0.00 62 1019.3
20260508124954 58 245 11.0 17.0 0.00 0.00 0.00 60 1019.3
20260508124452 58 243 11.0 19.0 0.00 0.00 0.00 60 1019.3
20260508123951 59 242 11.0 19.0 0.00 0.00 0.00 60 1019.3
20260508123450 59 245 10.0 20.0 0.00 0.00 0.00 61 1019.2
20260508122949 59 242 10.0 17.0 0.00 0.00 0.00 62 1019.2
20260508122446 59 247 11.0 18.0 0.00 0.00 0.00 60 1019.1
20260508121945 59 243 10.0 19.0 0.00 0.00 0.00 60 1019.2
20260508121443 59 241 10.0 17.0 0.00 0.00 0.00 60 1019.2
20260508120941 59 244 11.0 20.0 0.00 0.00 0.00 60 1019.3
20260508120440 59 242 10.0 16.0 0.00 0.00 0.00 59 1019.3
20260508115939 59 245 11.0 19.0 0.00 0.00 0.00 59 1019.2
20260508115438 60 247 14.0 21.0 0.00 0.00 0.00 58 1019.2
20260508114936 59 244 11.0 20.0 0.00 0.00 0.00 57 1019.1
20260508113931 60 246 11.0 18.0 0.00 0.00 0.00 59 1019.2
20260508113430 60 247 12.0 25.0 0.00 0.00 0.00 56 1019.2
20260508112926 60 241 11.0 17.0 0.00 0.00 0.00 56 1019.1
20260508112425 60 247 12.0 19.0 0.00 0.00 0.00 56 1019.0
20260508111924 60 248 11.0 21.0 0.00 0.00 0.00 57 1018.9
20260508111423 60 249 13.0 22.0 0.00 0.00 0.00 59 1018.9
20260508110922 60 254 13.0 20.0 0.00 0.00 0.00 57 1018.9
20260508110420 60 250 14.0 22.0 0.00 0.00 0.00 57 1018.8
20260508105919 60 248 11.0 17.0 0.00 0.00 0.00 56 1018.8
20260508104914 60 245 11.0 18.0 0.00 0.00 0.00 53 1018.7
20260508104413 61 244 11.0 20.0 0.00 0.00 0.00 53 1018.7
20260508103910 61 245 11.0 19.0 0.00 0.00 0.00 52 1018.6
20260508102904 61 247 12.0 21.0 0.00 0.00 0.00 52 1018.4
20260508102402 62 246 12.0 20.0 0.00 0.00 0.00 51 1018.4
20260508101357 62 251 12.0 20.0 0.00 0.00 0.00 51 1018.1
20260508100856 62 257 11.0 21.0 0.00 0.00 0.00 51 1018.1
20260508100355 63 257 9.0 14.0 0.00 0.00 0.00 55 1018.0
20260508095853 63 253 9.0 15.0 0.00 0.00 0.00 52 1017.8
20260508095351 63 246 9.0 16.0 0.00 0.00 0.00 47 1017.9
20260508094850 64 236 11.0 17.0 0.00 0.00 0.00 42 1017.8
20260508094348 64 239 13.0 23.0 0.00 0.00 0.00 41 1017.7
20260508093846 64 237 11.0 19.0 0.00 0.00 0.00 43 1017.6
20260508092338 64 235 10.0 16.0 0.00 0.00 0.00 43 1017.3
20260508091837 65 230 10.0 17.0 0.00 0.00 0.00 42 1017.2
20260508091335 65 233 12.0 20.0 0.00 0.00 0.00 41 1017.2
20260508090833 65 229 11.0 18.0 0.00 0.00 0.00 41 1017.2
20260508090332 65 231 12.0 18.0 0.00 0.00 0.00 42 1017.0
20260508084824 65 230 11.0 15.0 0.00 0.00 0.00 40 1016.9
20260508084323 65 228 9.0 15.0 0.00 0.00 0.00 40 1016.8
20260508083822 65 231 11.0 16.0 0.00 0.00 0.00 40 1016.6
20260508082817 65 229 11.0 17.0 0.00 0.00 0.00 39 1016.5
20260508082316 65 229 12.0 22.0 0.00 0.00 0.00 39 1016.4
20260508081814 65 229 10.0 16.0 0.00 0.00 0.00 37 1016.4
20260508080809 65 224 7.0 12.0 0.00 0.00 0.00 37 1016.2
20260508080307 65 227 7.0 12.0 0.00 0.00 0.00 38 1016.1
20260508075804 65 225 7.0 12.0 0.00 0.00 0.00 38 1016.2
20260508074759 65 223 9.0 14.0 0.00 0.00 0.00 37 1015.9
20260508074258 65 222 8.0 13.0 0.00 0.00 0.00 38 1015.7
20260508073253 66 222 9.0 17.0 0.00 0.00 0.00 36 1015.6
20260508072751 66 224 9.0 15.0 0.00 0.00 0.00 36 1015.5
20260508071747 66 226 7.0 14.0 0.00 0.00 0.00 36 1015.3
20260508071246 66 230 9.0 16.0 0.00 0.00 0.00 36 1015.2
20260508070744 66 234 8.0 13.0 0.00 0.00 0.00 37 1015.2
20260508070240 66 228 8.0 12.0 0.00 0.00 0.00 36 1015.1
20260508065739 66 229 7.0 14.0 0.00 0.00 0.00 36 1014.8
20260508065237 66 234 9.0 14.0 0.00 0.00 0.00 36 1014.8
20260508064735 67 229 7.0 11.0 0.00 0.00 0.00 37 1014.7
20260508063731 67 235 8.0 13.0 0.00 0.00 0.00 38 1014.5
20260508063229 67 241 9.0 15.0 0.00 0.00 0.00 38 1014.4
20260508062727 67 245 10.0 16.0 0.00 0.00 0.00 39 1014.4
20260508062225 68 250 7.0 14.0 0.00 0.00 0.00 40 1014.3
20260508061219 68 255 11.0 17.0 0.00 0.00 0.00 39 1014.3
20260508060716 68 251 11.0 17.0 0.00 0.00 0.00 39 1014.2
20260508055710 68 252 10.0 19.0 0.00 0.00 0.00 39 1014.0
20260508055208 68 262 9.0 17.0 0.00 0.00 0.00 46 1014.1
20260508054704 68 259 12.0 22.0 0.00 0.00 0.00 39 1014.0